This is the latest recevied weather packets stored in our database for station/object WX7FGZ-5. If no packets are shown the sender has not sent any weather packets the latest 10 day(s).
| Time | Temp. | Humidity | Pressure | Rain* | Wind** | Luminosity | Snow |
|---|---|---|---|---|---|---|---|
| 1777704725 | 5.56° C | 40% | 1024.3 hPa | 0 mm | - | 0 W/m² | - |
| 1777704423 | 6.11° C | 40% | 1024.3 hPa | 0 mm | - | 0 W/m² | - |
| 1777704123 | 6.67° C | 39% | 1024.1 hPa | 0 mm | - | 0 W/m² | - |
| 1777703224 | 7.22° C | 38% | 1024.2 hPa | 0 mm | - | 0 W/m² | - |
| 1777703204 | 7.78° C | 37% | 1024 hPa | 0 mm | - | 0 W/m² | - |
| 1777702923 | 7.78° C | 37% | 1024 hPa | 0 mm | - | 0 W/m² | - |
| 1777702852 | 7.78° C | 36% | 1023.9 hPa | 0 mm | - | 0 W/m² | - |
| 1777702635 | 7.22° C | 38% | 1023.8 hPa | 0 mm | - | 0 W/m² | - |
| 1777702623 | 7.78° C | 36% | 1023.9 hPa | 0 mm | - | 0 W/m² | - |
| 1777702323 | 7.22° C | 38% | 1023.8 hPa | 0 mm | - | 0 W/m² | - |
| 1777701604 | 7.78° C | 37% | 1023.9 hPa | 0 mm | - | 0 W/m² | - |
| 1777701306 | 7.78° C | 37% | 1023.8 hPa | 0 mm | - | 0 W/m² | - |
| 1777700755 | 7.78° C | 38% | 1023.9 hPa | 0 mm | - | 0 W/m² | - |
| 1777700454 | 7.22° C | 38% | 1023.8 hPa | 0 mm | - | 0 W/m² | - |
| 1777700154 | 7.22° C | 39% | 1023.9 hPa | 0 mm | - | 0 W/m² | - |
| 1777699869 | 7.78° C | 39% | 1023.9 hPa | 0 mm | - | 0 W/m² | - |
| 1777699455 | 7.78° C | 40% | 1023.9 hPa | 0 mm | - | 0 W/m² | - |
| 1777699154 | 7.78° C | 40% | 1023.8 hPa | 0 mm | - | 0 W/m² | - |
| 1777698854 | 8.33° C | 39% | 1023.8 hPa | 0 mm | - | 0 W/m² | - |
| 1777697954 | 8.33° C | 38% | 1023.6 hPa | 0 mm | - | 0 W/m² | - |
| 1777697661 | 8.33° C | 37% | 1023.5 hPa | 0 mm | - | 0 W/m² | - |
| 1777697354 | 8.33° C | 37% | 1023.5 hPa | 0 mm | - | 0 W/m² | - |
| 1777696656 | 8.89° C | 36% | 1023.5 hPa | 0 mm | - | 0 W/m² | - |
| 1777696355 | 8.89° C | 36% | 1023.4 hPa | 0 mm | - | 0 W/m² | - |
| 1777695756 | 9.44° C | 34% | 1023.4 hPa | 0 mm | - | 0 W/m² | - |
* Rain latest hour (hover to see other rain measurements)
** Current wind speed in m/s (hover to see current wind gust speed)